Regional Weather Roundup
Issued by NWS Columbia, SC

Home | Current Version | Previous Version | Text Only | Print | Product List | Glossary On
Versions: 1 2 3 4 5 6 7 8 9 10 11 12 13 14 15 16 17 18 19 20 21 22 23 24 25 26 27
000
ASUS42 KCAE 291610
RWRCAE
REGIONAL WEATHER ROUNDUP
NATIONAL WEATHER SERVICE COLUMBIA SC
1200 PM EDT FRI JUL 29 2016

NOTE: "FAIR" INDICATES FEW OR NO CLOUDS BELOW 12,000 FEET WITH NO
SIGNIFICANT WEATHER AND/OR OBSTRUCTIONS TO VISIBILITY.

NOT ALL STATIONS ARE QUALITY CONTROLLED BY THE NATIONAL
WEATHER SERVICE. USE DATA WITH CAUTION...ESPECIALLY
DEWPOINT OBSERVATIONS.

SCZ001>056-GAZ040-063>065-077-291700-
...UPSTATE SOUTH CAROLINA...

CITY           SKY/WX    TMP DP  RH WIND       PRES   REMARKS
ANDERSON       SUNNY     89  68  49 W8        30.00S
LIBERTY        MOSUNNY   88  70  55 NW6       30.00S
SPARTANBURG    SUNNY     86  64  48 NW6       29.99S
CLEMSON        MOSUNNY   90  69  50 W9        30.01S
GREENVILLE     PTSUNNY   86  66  51 VRB6      30.01F
GREENWOOD      MOSUNNY   89  68  49 MISG      30.00F
GREER          PTSUNNY   85  68  56 W5        29.99F
ROCK HILL      PTSUNNY   87  68  52 W8        29.98F
CHESTER        MOSUNNY   86  64  48 N5        29.98F
LAURENS        MOSUNNY   86  70  58 W3        29.99S


...CENTRAL SOUTH CAROLINA...

CITY           SKY/WX    TMP DP  RH WIND       PRES   REMARKS
COLUMBIA APT   MOSUNNY   93  69  45 W10       29.95F HX  98
COLUMBIA OWENS SUNNY     91  69  48 NW8G16    29.96F HX  96
MCENTIRE ANGB  MOSUNNY   92  70  48 W9        29.95F HX  98
ORANGEBURG     SUNNY     92  71  50 W9        29.97F HX  98
SUMTER SHAW    MOSUNNY   91  71  52 W12       29.92F HX  97
NEWBERRY       SUNNY     88  70  55 W9        30.01F
AIKEN          FAIR      90  70  51 W9        30.01F HX  95
MANNING        FAIR      90  70  51 SW12      29.96S HX  95
LANCASTER      MOSUNNY   88  68  51 SW7       29.97F
WINNSBORO      MOSUNNY   88  68  51 NW6       29.97F


...EASTERN AND COASTAL SOUTH CAROLINA...

CITY           SKY/WX    TMP DP  RH WIND       PRES   REMARKS
MYRTLE BEACH   MOSUNNY   93  68  43 W12G20    29.95F HX  97
N MYRTLE BCH   SUNNY     92  71  50 W9        29.92F HX  98
CONWAY         FAIR      90  72  55 W6        29.93F HX  96
MARION           N/A     88  72  58 W10       29.94F
HARTSVILLE     PTSUNNY   88  70  55 W8        29.94F
FLORENCE       PTSUNNY   88  73  61 SW9       29.94F HX  95
DARLINGTON     MOSUNNY   89  73  59 W8        29.94F HX  97
CHARLESTON APT MOSUNNY   93  69  45 W15G25    29.97F HX  98
MOUNT PLEASANT FAIR      93  72  49 W16G26    29.97F HX 100
WALTERBORO     SUNNY     93  68  43 W12G21    29.99F HX  97
BEAUFORT       MOSUNNY   95  69  42 W13       29.99F HX 100


...EASTERN GEORGIA...

CITY           SKY/WX    TMP DP  RH WIND       PRES   REMARKS
AUGUSTA BUSH F SUNNY     94  68  42 W12       29.97F HX  98
AUGUSTA DANIEL SUNNY     92  68  45 W9G17     30.00F HX  96
WASHINGTON     FAIR      90  72  55 W7        30.01S HX  96
CLAXTON        FAIR      92  73  53 SW9       30.01F HAZE    HX 101
STATESBORO     SUNNY     91  74  56 NW8       30.02S HX 100
SAVANNAH       MOSUNNY   93  70  46 W8        30.01F HX  99


...SOUTHERN NORTH CAROLINA...

CITY           SKY/WX    TMP DP  RH WIND       PRES   REMARKS
CHARLOTTE      MOSUNNY   88  65  46 NW9       29.98S
MONROE         MOSUNNY   89  66  46 VRB6      29.96S
ROCKINGHAM     MOSUNNY   87  70  56 N6        29.94S
RUTHERFORDTON    N/A     84  68  59 CALM      30.01S
ASHEVILLE      MOSUNNY   83  64  52 N7        30.08S

$$




USA.gov is the U.S. government's official web portal to all federal, state and local government web resources and services.